Location: East Guldeford
(50.9500°N, 0.7500°E)
Time: 07:28:30
(UTC+00:00)

USA 245 - Visible Passes

Search period start: 28 September 2021 00:00
Search period end: 08 October 2021 00:00
Orbit: 269 x 1014 km, 97.9° (Epoch: 23 September)

Date Brightness Start Highest point End Pass type
(mag) Time Alt. Az. Time Alt. Az. Time Alt. Az.
28 Sep 5.8 19:02:05 11° ENE 19:03:21 13° NE 19:05:29 10° NNE visible
28 Sep 4.5 20:39:41 46° NNE 20:39:41 46° NNE 20:43:46 10° N visible
28 Sep 6.3 22:17:18 17° WNW 22:17:18 17° WNW 22:19:27 10° NW visible
29 Sep 5.5 19:26:14 18° ENE 19:26:46 18° NE 19:30:22 10° N visible
29 Sep 4.8 21:03:51 47° NNW 21:03:51 47° NNW 21:07:47 10° NNW visible
29 Sep 6.7 22:41:27 12° WNW 22:41:27 12° WNW 22:42:23 10° NW visible
30 Sep 5.1 19:50:23 27° NE 19:50:23 27° NE 19:54:48 10° N visible
30 Sep 5.3 21:28:00 37° NW 21:28:00 37° NW 21:31:39 10° NNW visible
01 Oct 4.8 20:14:32 38° NE 20:14:32 38° NE 20:19:01 10° N visible
01 Oct 5.9 21:52:08 27° NW 21:52:08 27° NW 21:55:23 10° NNW visible
02 Oct 5.9 19:01:03 13° ENE 19:02:15 14° NE 19:05:06 10° NNE visible
02 Oct 4.7 20:38:40 48° NNE 20:38:40 48° NNE 20:43:05 10° N visible
02 Oct 6.3 22:16:16 20° WNW 22:16:16 20° WNW 22:18:53 10° NW visible
03 Oct 5.6 19:25:11 20° ENE 19:25:37 20° NE 19:29:42 10° N visible
03 Oct 4.9 21:02:48 48° NNW 21:02:48 48° NNW 21:07:02 10° NNW visible
03 Oct 6.7 22:40:24 14° WNW 22:40:24 14° WNW 22:41:59 10° NW visible
04 Oct 5.2 19:49:19 29° NE 19:49:19 29° NE 19:54:01 10° N visible
04 Oct 5.4 21:26:55 39° NW 21:26:55 39° NW 21:30:52 10° NNW visible
05 Oct 6.2 18:36:21 10° NE 18:37:43 11° NE 18:39:06 10° NNE visible
05 Oct 4.9 20:13:25 39° NE 20:13:25 39° NE 20:18:09 10° N visible
05 Oct 5.9 21:51:02 29° NW 21:51:02 29° NW 21:54:33 10° NNW visible
06 Oct 5.9 18:59:55 15° ENE 19:00:58 15° NE 19:04:18 10° NNE visible
06 Oct 4.9 20:37:32 48° NNE 20:37:32 48° NNE 20:42:09 10° N visible
06 Oct 6.4 22:15:08 21° WNW 22:15:08 21° WNW 22:18:03 10° NNW visible
07 Oct 5.6 19:24:02 22° ENE 19:24:17 22° NE 19:28:45 10° N visible
07 Oct 5.1 21:01:38 48° NNW 21:01:38 48° NNW 21:06:02 10° NNW visible
07 Oct 6.7 22:39:14 15° WNW 22:39:14 15° WNW 22:41:13 10° NW visible
